FW4804 Weather Reports


Display with metric or nautical units.
time (UTC)temp
F
wind
direction
speed
MPH
gust
MPH
rain 1hr
in
rain 24hr
in
rain mn
in
humidity
%
barometer
mb
20260508001505 48 0 0.0 0.0 0.00 0.00 0.00 89 1017.4
20260508001006 48 0 0.0 0.0 0.00 0.00 0.00 89 1017.6
20260508000505 48 0 0.0 0.0 0.00 0.00 0.00 89 1017.6
20260507235507 48 0 0.0 0.0 0.00 0.00 0.00 88 1017.8
20260507235012 48 0 0.0 0.0 0.00 0.00 0.00 88 1017.8
20260507234505 48 0 0.0 0.0 0.00 0.00 0.00 88 1017.8
20260507234005 49 0 0.0 0.0 0.00 0.00 0.00 88 1018.0
20260507233507 49 0 0.0 0.0 0.00 0.00 0.00 88 1018.0
20260507233006 49 0 0.0 0.0 0.00 0.00 0.00 87 1018.0
20260507232505 49 0 0.0 0.0 0.00 0.00 0.00 87 1018.1
20260507231005 49 0 0.0 0.0 0.00 0.00 0.00 87 1018.4
20260507230505 49 0 0.0 0.0 0.00 0.00 0.00 87 1018.5
20260507225005 49 0 0.0 0.0 0.00 0.00 0.00 86 1018.6
20260507224506 49 0 0.0 0.0 0.00 0.00 0.00 86 1018.7
20260507224005 49 0 0.0 0.0 0.00 0.00 0.00 85 1018.6
20260507223505 49 0 0.0 0.0 0.00 0.00 0.00 85 1018.7
20260507223005 50 0 0.0 0.0 0.00 0.00 0.00 86 1018.8
20260507222506 49 0 0.0 0.0 0.00 0.00 0.00 85 1018.7
20260507222005 49 0 0.0 0.0 0.00 0.00 0.00 84 1018.8
20260507221507 50 0 0.0 0.0 0.00 0.00 0.00 85 1019.0
20260507220505 50 0 0.0 0.0 0.00 0.00 0.00 86 1018.8
20260507220006 50 0 0.0 0.0 0.00 0.00 0.00 86 1019.0
20260507215508 49 0 0.0 0.0 0.00 0.00 0.00 87 1019.0
20260507215005 49 0 0.0 0.0 0.00 0.00 0.00 87 1019.0
20260507214005 49 0 0.0 0.0 0.00 0.00 0.00 86 1019.0
20260507213505 49 0 0.0 0.0 0.00 0.00 0.00 86 1019.0
20260507213005 49 0 0.0 0.0 0.00 0.00 0.00 86 1019.1
20260507212505 49 0 0.0 0.0 0.00 0.00 0.00 86 1019.1
20260507212005 49 0 0.0 0.0 0.00 0.00 0.00 85 1019.2
20260507211506 49 0 0.0 0.0 0.00 0.00 0.00 85 1019.5
20260507211006 49 0 0.0 0.0 0.00 0.00 0.00 85 1019.3
20260507210507 49 0 0.0 0.0 0.00 0.00 0.00 85 1019.2
20260507205505 49 0 0.0 0.0 0.00 0.00 0.00 85 1019.4
20260507204005 50 0 0.0 0.0 0.00 0.00 0.00 83 1019.7
20260507203507 50 0 0.0 0.0 0.00 0.00 0.00 83 1019.7
20260507203012 50 0 0.0 0.0 0.00 0.00 0.00 83 1019.9
20260507202505 51 0 0.0 0.0 0.00 0.00 0.00 82 1019.7
20260507201506 51 0 0.0 0.0 0.00 0.00 0.00 82 1019.6
20260507201006 51 0 0.0 0.0 0.00 0.00 0.00 82 1019.9
20260507200505 51 135 0.0 1.0 0.00 0.00 0.00 82 1019.8
20260507200020 51 135 0.0 1.0 0.00 0.00 0.00 83 1019.7
20260507195506 51 0 0.0 0.0 0.00 0.00 0.00 82 1019.8
20260507195005 51 0 0.0 0.0 0.00 0.00 0.00 82 1019.7
20260507194505 50 0 0.0 0.0 0.00 0.00 0.00 81 1019.7
20260507194005 51 0 0.0 0.0 0.00 0.00 0.00 79 1019.8
20260507193505 51 0 0.0 0.0 0.00 0.00 0.00 79 1019.9
20260507192509 52 0 0.0 0.0 0.00 0.00 0.00 80 1019.6
20260507192005 52 0 0.0 0.0 0.00 0.00 0.00 79 1019.6
20260507191505 52 0 0.0 0.0 0.00 0.00 0.00 79 1019.6
20260507191005 52 0 0.0 0.0 0.00 0.00 0.00 78 1019.5
20260507190505 53 0 0.0 0.0 0.00 0.00 0.00 78 1019.2
20260507190006 53 0 0.0 0.0 0.00 0.00 0.00 78 1019.3
20260507185505 53 0 0.0 0.0 0.00 0.00 0.00 77 1019.2
20260507185006 54 0 0.0 0.0 0.00 0.00 0.00 77 1019.0
20260507184505 54 0 0.0 0.0 0.00 0.00 0.00 76 1019.1
20260507184008 54 0 0.0 0.0 0.00 0.00 0.00 75 1018.9
20260507183505 54 0 0.0 0.0 0.00 0.00 0.00 75 1019.0
20260507183008 54 0 0.0 0.0 0.00 0.00 0.00 75 1018.9
20260507182005 55 0 0.0 0.0 0.00 0.00 0.00 72 1018.6
20260507181505 56 0 0.0 0.0 0.00 0.00 0.00 71 1018.3
20260507180505 56 0 0.0 0.0 0.00 0.00 0.00 68 1018.2
20260507180005 57 0 0.0 0.0 0.00 0.00 0.00 67 1018.2
20260507175505 58 0 0.0 0.0 0.00 0.00 0.00 65 1018.1
20260507175005 58 0 0.0 0.0 0.00 0.00 0.00 65 1018.1
20260507174512 59 0 0.0 0.0 0.00 0.00 0.00 64 1018.1
20260507174005 59 0 0.0 0.0 0.00 0.00 0.00 64 1017.9
20260507173505 60 0 0.0 0.0 0.00 0.00 0.00 63 1018.1
20260507172505 61 0 0.0 0.0 0.00 0.00 0.00 62 1018.0
20260507171505 62 181 0.0 2.0 0.00 0.00 0.00 60 1018.0
20260507171012 63 182 1.0 4.0 0.00 0.00 0.00 58 1018.0
20260507170505 63 202 1.0 4.0 0.00 0.00 0.00 56 1017.9
20260507170005 64 135 1.0 4.0 0.00 0.00 0.00 53 1018.0
20260507165505 64 147 1.0 4.0 0.00 0.00 0.00 53 1017.9
20260507164505 65 0 0.0 0.0 0.00 0.00 0.00 53 1017.9
20260507164005 65 0 0.0 0.0 0.00 0.00 0.00 55 1017.8
20260507163505 65 0 0.0 0.0 0.00 0.00 0.00 54 1018.0
20260507163005 65 0 0.0 0.0 0.00 0.00 0.00 54 1017.8
20260507162506 66 135 0.0 3.0 0.00 0.00 0.00 53 1017.8
20260507161005 67 317 2.0 6.0 0.00 0.00 0.00 48 1018.0
20260507160010 68 241 2.0 4.0 0.00 0.00 0.00 47 1017.9
20260507155505 69 322 3.0 4.0 0.00 0.00 0.00 46 1017.9
20260507154505 69 5 0.0 3.0 0.00 0.00 0.00 45 1017.9
20260507154006 69 311 1.0 3.0 0.00 0.00 0.00 45 1018.0
20260507153005 69 340 2.0 5.0 0.00 0.00 0.00 45 1017.9
20260507152506 69 319 2.0 5.0 0.00 0.00 0.00 44 1017.8
20260507152005 69 318 2.0 4.0 0.00 0.00 0.00 44 1017.7
20260507151505 69 332 3.0 4.0 0.00 0.00 0.00 44 1017.8
20260507151005 70 312 3.0 4.0 0.00 0.00 0.00 44 1017.8
20260507150508 69 181 2.0 4.0 0.00 0.00 0.00 45 1017.6
20260507145505 69 313 4.0 5.0 0.00 0.00 0.00 44 1017.7
20260507145005 69 287 5.0 8.0 0.00 0.00 0.00 44 1017.6
20260507144505 69 280 5.0 8.0 0.00 0.00 0.00 42 1017.7
20260507143505 70 213 2.0 4.0 0.00 0.00 0.00 43 1017.8
20260507143005 71 232 2.0 3.0 0.00 0.00 0.00 41 1017.8
20260507142505 71 258 2.0 4.0 0.00 0.00 0.00 41 1017.6
20260507142005 72 300 2.0 4.0 0.00 0.00 0.00 41 1017.6
20260507141507 73 335 2.0 4.0 0.00 0.00 0.00 38 1017.6
20260507141021 72 10 3.0 4.0 0.00 0.00 0.00 36 1017.3
20260507140509 72 351 4.0 6.0 0.00 0.00 0.00 41 1017.2
20260507135508 72 142 2.0 4.0 0.00 0.00 0.00 42 1017.3
20260507135005 72 135 1.0 3.0 0.00 0.00 0.00 41 1017.5
20260507134505 73 111 1.0 3.0 0.00 0.00 0.00 35 1017.5
20260507134005 74 126 1.0 4.0 0.00 0.00 0.00 35 1017.5
20260507133507 74 154 3.0 4.0 0.00 0.00 0.00 37 1017.3
20260507133005 74 162 4.0 4.0 0.00 0.00 0.00 36 1017.2
20260507132506 75 238 3.0 4.0 0.00 0.00 0.00 37 1017.1
20260507132005 75 154 4.0 6.0 0.00 0.00 0.00 36 1017.0
20260507131505 76 146 5.0 6.0 0.00 0.00 0.00 34 1016.9
20260507131008 77 136 4.0 6.0 0.00 0.00 0.00 33 1016.7
20260507130507 78 110 4.0 6.0 0.00 0.00 0.00 33 1016.9
20260507130006 77 32 4.0 6.0 0.00 0.00 0.00 33 1016.8
20260507125005 78 31 1.0 4.0 0.00 0.00 0.00 34 1016.7
20260507124005 77 53 2.0 4.0 0.00 0.00 0.00 33 1016.7
20260507123505 77 3 3.0 4.0 0.00 0.00 0.00 30 1016.7
20260507122507 76 120 4.0 6.0 0.00 0.00 0.00 32 1017.0
20260507121505 76 293 2.0 4.0 0.00 0.00 0.00 32 1017.1
20260507121005 75 283 3.0 8.0 0.00 0.00 0.00 33 1017.4
20260507120007 74 257 3.0 8.0 0.00 0.00 0.00 33 1017.0
20260507115505 73 273 2.0 4.0 0.00 0.00 0.00 32 1017.3
20260507115005 71 258 1.0 3.0 0.00 0.00 0.00 38 1017.2
20260507114505 72 257 2.0 4.0 0.00 0.00 0.00 34 1017.0
20260507114005 72 253 2.0 4.0 0.00 0.00 0.00 32 1017.4
20260507113505 73 247 1.0 3.0 0.00 0.00 0.00 32 1017.2
20260507113005 74 286 1.0 3.0 0.00 0.00 0.00 32 1017.1
20260507112005 73 284 2.0 4.0 0.00 0.00 0.00 28 1017.2
20260507111506 73 297 1.0 4.0 0.00 0.00 0.00 30 1017.1
20260507111005 73 281 0.0 2.0 0.00 0.00 0.00 28 1017.1
20260507110505 72 278 0.0 2.0 0.00 0.00 0.00 33 1017.3
20260507110005 72 0 0.0 0.0 0.00 0.00 0.00 38 1017.4
20260507105505 72 0 0.0 0.0 0.00 0.00 0.00 42 1017.5
20260507105005 71 314 0.0 1.0 0.00 0.00 0.00 42 1017.6
20260507104506 70 249 0.0 1.0 0.00 0.00 0.00 38 1017.6
20260507104005 70 278 1.0 4.0 0.00 0.00 0.00 42 1017.7
20260507103505 69 274 3.0 4.0 0.00 0.00 0.00 41 1017.8
20260507103006 69 274 4.0 7.0 0.00 0.00 0.00 38 1017.9
20260507102505 68 290 5.0 7.0 0.00 0.00 0.00 35 1017.9
20260507102007 68 293 5.0 7.0 0.00 0.00 0.00 35 1017.8
20260507101507 68 289 4.0 7.0 0.00 0.00 0.00 35 1017.9
20260507101005 68 282 3.0 5.0 0.00 0.00 0.00 36 1017.9
20260507100508 68 279 3.0 4.0 0.00 0.00 0.00 36 1017.7
20260507100016 68 284 3.0 4.0 0.00 0.00 0.00 37 1017.9
20260507095509 69 278 2.0 4.0 0.00 0.00 0.00 33 1017.6
20260507095008 69 270 2.0 4.0 0.00 0.00 0.00 33 1017.6
20260507094506 69 279 1.0 3.0 0.00 0.00 0.00 32 1017.6
20260507093005 69 265 1.0 2.0 0.00 0.00 0.00 33 1017.4
20260507092505 69 270 0.0 2.0 0.00 0.00 0.00 34 1017.3
20260507092005 69 270 1.0 4.0 0.00 0.00 0.00 37 1017.4
20260507091005 69 253 0.0 2.0 0.00 0.00 0.00 34 1017.1
20260507090506 69 201 0.0 2.0 0.00 0.00 0.00 34 1017.2
20260507090006 68 265 0.0 1.0 0.00 0.00 0.00 39 1017.1
20260507085006 67 258 0.0 2.0 0.00 0.00 0.00 43 1017.3
20260507084505 67 0 0.0 0.0 0.00 0.00 0.00 43 1017.3
20260507084005 67 0 0.0 0.0 0.00 0.00 0.00 35 1017.4
20260507083505 66 0 0.0 0.0 0.00 0.00 0.00 46 1017.3
20260507083005 65 0 0.0 0.0 0.00 0.00 0.00 52 1017.2
20260507081505 64 0 0.0 0.0 0.00 0.00 0.00 50 1017.1
20260507081005 64 0 0.0 0.0 0.00 0.00 0.00 52 1017.2
20260507080505 64 0 0.0 0.0 0.00 0.00 0.00 47 1017.0
20260507080005 64 0 0.0 0.0 0.00 0.00 0.00 49 1017.1
20260507075505 63 0 0.0 0.0 0.00 0.00 0.00 50 1017.0
20260507075005 63 0 0.0 0.0 0.00 0.00 0.00 51 1016.9
20260507074505 63 0 0.0 0.0 0.00 0.00 0.00 50 1016.9
20260507074005 63 0 0.0 0.0 0.00 0.00 0.00 51 1016.9
20260507073505 62 0 0.0 0.0 0.00 0.00 0.00 53 1017.1
20260507073005 61 0 0.0 0.0 0.00 0.00 0.00 47 1017.3
20260507072505 61 0 0.0 0.0 0.00 0.00 0.00 53 1017.2
20260507072006 60 0 0.0 0.0 0.00 0.00 0.00 54 1017.1
20260507071507 59 0 0.0 0.0 0.00 0.00 0.00 57 1017.3
20260507071005 59 0 0.0 0.0 0.00 0.00 0.00 54 1017.3
20260507070505 59 0 0.0 0.0 0.00 0.00 0.00 51 1017.4
20260507070009 60 0 0.0 0.0 0.00 0.00 0.00 53 1017.2
20260507065505 59 0 0.0 0.0 0.00 0.00 0.00 55 1017.3
20260507065005 58 0 0.0 0.0 0.00 0.00 0.00 59 1017.2
20260507064505 57 0 0.0 0.0 0.00 0.00 0.00 63 1017.1
20260507064008 56 0 0.0 0.0 0.00 0.00 0.00 65 1017.1
20260507063505 54 0 0.0 0.0 0.00 0.00 0.00 65 1017.2
20260507063005 53 0 0.0 0.0 0.00 0.00 0.00 68 1017.4
20260507062505 52 0 0.0 0.0 0.00 0.00 0.00 72 1017.4
20260507062008 52 0 0.0 0.0 0.00 0.00 0.00 73 1017.5
20260507061505 51 0 0.0 0.0 0.00 0.00 0.00 76 1017.5
20260507061005 50 0 0.0 0.0 0.00 0.00 0.00 76 1017.6
20260507060005 50 0 0.0 0.0 0.00 0.00 0.00 79 1017.6
20260507055505 50 0 0.0 0.0 0.00 0.00 0.00 78 1017.8
20260507055005 49 0 0.0 0.0 0.00 0.00 0.00 79 1017.8
20260507054505 49 0 0.0 0.0 0.00 0.00 0.00 83 1017.7
20260507054006 49 0 0.0 0.0 0.00 0.00 0.00 84 1017.9
20260507053007 47 0 0.0 0.0 0.00 0.00 0.00 87 1017.8
20260507052505 47 0 0.0 0.0 0.00 0.00 0.00 87 1017.7
20260507052005 47 0 0.0 0.0 0.00 0.00 0.00 87 1017.8
20260507051506 46 0 0.0 0.0 0.00 0.00 0.00 88 1017.7
20260507051005 46 0 0.0 0.0 0.00 0.00 0.00 90 1017.5
20260507050506 46 0 0.0 0.0 0.00 0.00 0.00 91 1017.5
20260507050006 46 0 0.0 0.0 0.00 0.00 0.00 92 1017.6
20260507045505 45 0 0.0 0.0 0.00 0.00 0.00 96 1017.2
20260507045005 44 0 0.0 0.0 0.00 0.00 0.00 96 1017.2
20260507044507 44 0 0.0 0.0 0.00 0.00 0.00 95 1017.2
20260507044005 43 0 0.0 0.0 0.00 0.00 0.00 95 1017.3
20260507043520 43 0 0.0 0.0 0.00 0.00 0.00 95 1017.0
20260507043005 43 0 0.0 0.0 0.00 0.00 0.00 95 1017.0
20260507042008 42 248 0.0 1.0 0.00 0.00 0.00 95 1016.9
20260507041505 43 248 0.0 1.0 0.00 0.00 0.00 95 1017.1
20260507041005 43 248 0.0 1.0 0.00 0.00 0.00 96 1017.1
20260507040007 42 334 0.0 1.0 0.00 0.00 0.00 97 1017.0
20260507035505 42 328 0.0 1.0 0.00 0.00 0.00 97 1016.9
20260507035005 42 339 0.0 1.0 0.00 0.00 0.00 97 1017.1
20260507034505 42 350 0.0 1.0 0.00 0.00 0.00 96 1017.0
20260507034005 41 0 0.0 0.0 0.00 0.00 0.00 96 1017.1
20260507033508 40 0 0.0 0.0 0.00 0.00 0.00 95 1017.1
20260507032506 41 0 0.0 0.0 0.00 0.00 0.00 95 1017.2
20260507032005 41 0 0.0 0.0 0.00 0.00 0.00 96 1017.2
20260507031505 41 0 0.0 0.0 0.00 0.00 0.00 96 1017.4
20260507031005 41 0 0.0 0.0 0.00 0.00 0.00 96 1017.5
20260507030505 41 0 0.0 0.0 0.00 0.00 0.00 96 1017.6
20260507030005 41 0 0.0 0.0 0.00 0.00 0.00 96 1017.5
20260507025505 41 0 0.0 0.0 0.00 0.00 0.00 96 1017.6
20260507025006 41 0 0.0 0.0 0.00 0.00 0.00 95 1017.5
20260507024506 40 0 0.0 0.0 0.00 0.00 0.00 94 1017.5
20260507024005 40 0 0.0 0.0 0.00 0.00 0.00 94 1017.4
20260507023508 40 0 0.0 0.0 0.00 0.00 0.00 94 1017.4
20260507023006 40 0 0.0 0.0 0.00 0.00 0.00 94 1017.5
20260507022505 40 0 0.0 0.0 0.00 0.00 0.00 95 1017.4
20260507021505 41 0 0.0 0.0 0.00 0.00 0.00 96 1017.3
20260507021005 41 314 0.0 1.0 0.00 0.00 0.00 96 1017.3
20260507020505 41 314 0.0 1.0 0.00 0.00 0.00 96 1017.6
20260507020006 41 314 0.0 1.0 0.00 0.00 0.00 95 1017.5
20260507015506 40 314 0.0 1.0 0.00 0.00 0.00 94 1017.6
20260507014505 40 0 0.0 0.0 0.00 0.00 0.00 94 1017.5
20260507013505 40 0 0.0 0.0 0.00 0.00 0.00 94 1017.5
20260507013006 41 0 0.0 0.0 0.00 0.00 0.00 94 1017.5
20260507012513 41 0 0.0 0.0 0.00 0.00 0.00 95 1017.5
20260507012008 41 328 0.0 1.0 0.00 0.00 0.00 95 1017.5
20260507011505 42 328 0.0 1.0 0.00 0.00 0.00 95 1017.6
20260507011005 41 0 0.0 0.0 0.00 0.00 0.00 94 1017.3
20260507010505 40 0 0.0 0.0 0.00 0.00 0.00 93 1017.4
20260507005506 41 0 0.0 0.0 0.00 0.00 0.00 93 1017.7
20260507004506 41 0 0.0 0.0 0.00 0.00 0.00 93 1017.4
20260507004005 41 0 0.0 0.0 0.00 0.00 0.00 92 1017.5
20260507003505 41 0 0.0 0.0 0.00 0.00 0.00 92 1017.5
20260507003006 41 0 0.0 0.0 0.00 0.00 0.00 92 1017.5